Change the Weather History Date:

Sunday, February 17, 2013

  Actual Average Record
Temperature  
Mean Temperature 60 °F -  
Max Temperature 78 °F 71 °F 84 °F (2014)
Min Temperature 43 °F 45 °F 31 °F (1956)
Degree Days  
Heating Degree Days 4    
Growing Degree Days 10 (Base 50)    
Moisture  
Dew Point 17 °F    
Average Humidity 22    
Maximum Humidity 43    
Minimum Humidity 7    
Precipitation  
Precipitation 0.00 in - - ()
Sea Level Pressure  
Sea Level Pressure 29.83 in    
Wind  
Wind Speed 5 mph (WSW)    
Max Wind Speed 15 mph    
Max Gust Speed 24 mph    
Visibility 10 miles    
Events      
Averages and records for this station are not official NWS values.
T = Trace of Precipitation, MM = Missing Value Source: NWS Daily Summary

Daily Weather History Graph

Daily Weather History Graph

Search for Another Location

Airport or City:

Trip Planner

Search our weather history database for the weather conditions in past years. The results will help you decide how hot, cold, wet, or windy it might be!

Date:

Astronomy

Feb. 17, 2013 Rise Set
Actual Time 6:21 AM PST 5:23 PM PST
Civil Twilight 5:55 AM PST 5:49 PM PST
Nautical Twilight 5:26 AM PST 6:19 PM PST
Astronomical Twilight 4:57 AM PST 6:48 PM PST
Moon 10:36 AM PST (2/17) 12:04 AM PST (2/17)
Length of Visible Light 11h 53m
Length of Day
11h 02m
Waxing Crescent, 50% of the Moon is Illuminated
Feb 17
Waxing Crescent
Feb 17
First Quarter
Feb 25
Full
Mar 4
Last Quarter
Mar 11
New

Hourly Weather History & Observations

Time (PST) Temp. Windchill Dew Point Humidity Pressure Visibility Wind Dir Wind Speed Gust Speed Precip Events Conditions
12:56 AM 52.0 °F - 21.9 °F 31% 29.92 in 10.0 mi SW 3.5 mph - N/A   Clear
1:56 AM 48.9 °F - 23.0 °F 36% 29.90 in 10.0 mi SW 4.6 mph - N/A   Clear
2:56 AM 46.9 °F - 21.9 °F 37% 29.88 in 10.0 mi West 4.6 mph - N/A   Clear
3:56 AM 45.0 °F 42.6 °F 21.9 °F 40% 29.87 in 10.0 mi West 4.6 mph - N/A   Clear
4:56 AM 45.0 °F 43.5 °F 21.9 °F 40% 29.87 in 10.0 mi WSW 3.5 mph - N/A   Clear
5:56 AM 43.0 °F 40.3 °F 21.9 °F 43% 29.88 in 10.0 mi SSW 4.6 mph - N/A   Clear
6:56 AM 45.0 °F - 21.9 °F 40% 29.88 in 10.0 mi Calm Calm - N/A   Clear
7:56 AM 53.1 °F - 21.9 °F 30% 29.88 in 10.0 mi Calm Calm - N/A   Clear
8:56 AM 54.0 °F - 23.0 °F 30% 29.88 in 10.0 mi Calm Calm - N/A   Clear
9:56 AM 59.0 °F - 23.0 °F 25% 29.86 in 10.0 mi Calm Calm - N/A   Clear
10:56 AM 64.0 °F - 23.0 °F 21% 29.85 in 10.0 mi Variable 3.5 mph - N/A   Clear
11:56 AM 68.0 °F - 23.0 °F 18% 29.82 in 10.0 mi Variable 4.6 mph - N/A   Clear
12:56 PM 73.0 °F - 23.0 °F 15% 29.78 in 10.0 mi Variable 3.5 mph - N/A   Clear
1:56 PM 78.1 °F - 9.0 °F 7% 29.74 in 10.0 mi WNW 12.7 mph 17.3 mph N/A   Clear
2:56 PM 78.1 °F - 9.0 °F 7% 29.74 in 10.0 mi Variable 4.6 mph 24.2 mph N/A   Clear
3:56 PM 78.1 °F - 10.0 °F 7% 29.74 in 10.0 mi WNW 13.8 mph - N/A   Clear
4:56 PM 75.0 °F - 8.1 °F 8% 29.74 in 10.0 mi West 15.0 mph - N/A   Clear
5:56 PM 71.1 °F - 9.0 °F 9% 29.75 in 10.0 mi West 11.5 mph - N/A   Clear
6:56 PM 69.1 °F - 10.0 °F 10% 29.77 in 10.0 mi WNW 15.0 mph - N/A   Clear
7:56 PM 68.0 °F - 12.0 °F 11% 29.79 in 10.0 mi WNW 13.8 mph - N/A   Clear
8:56 PM 64.9 °F - 12.0 °F 13% 29.82 in 10.0 mi East 5.8 mph - N/A   Clear
9:56 PM 66.9 °F - 10.0 °F 11% 29.82 in 10.0 mi West 4.6 mph - N/A   Clear
10:56 PM 57.0 °F - 12.9 °F 18% 29.84 in 10.0 mi SSE 6.9 mph - N/A   Clear
11:56 PM 57.9 °F - 15.1 °F 19% 29.86 in 10.0 mi SE 5.8 mph - N/A   Clear